sat.trackr.live / text

‹ back to catalog

UNKNOWN

NORAD 84407

UNKNOWN UNKNOWN UNKNOWN

§ Identity

Operator
Country
Launch date
Launch site
Launch vehicle
Mass (kg)
RCS (m²)

External: N2YO · Heavens-Above

§ Orbital elements

Epoch: 2026-05-23T04:16:54.349248Z

Period
699.58 min
Inclination
19.3067°
Eccentricity
0.7232884
Mean motion
2.05837271 rev/d
Perigee alt
845.3 km
Apogee alt
38,607.8 km
Semi-major
26,104.7 km
B*
-3.8462e-3
RAAN
274.8517°
Arg perigee
149.1836°
Mean anomaly
287.8014°
Rev number
7,919

§ Raw data

UNKNOWN1 84407U          26143.17840682 -.00000179  00000+0 -38462-2 0  99982 84407  19.3067 274.8517 7232884 149.1836 287.8014  2.05837271 79192

JSON: /api/v1/satellites/84407 · /tle

For live sub-satellite position, see the globe view (requires WebGL).

§ Visibility from observer

Set your observer location to see the next 7 days of passes ≥ 10°. The values pass through the URL so the page stays shareable.

No JS? Fill the form by hand. The geolocation button needs JavaScript.